[[{"header":{"parameterUnit":"m.s-1","parameterCategory":2,"la1":30.2991,"la2":30.254,"lo1":-89.0895,"lo2":-89.0444,"dy":0.0017,"dx":0.0017,"nx":28,"ny":28,"refTime":"2024-10-20T21:00:00:Z","depth":"0","parameterNumber":2,"parameterNumberName":"U-component_of_CURRENTS"},"data":[0,0,0,0,0,0,0,0,0,0,0,0,0,0,0,0,0,0,0,0,0,0,0,0,0,0,0,0,0,0,0,0,0,0,0,0,0,0,0,0,0,0,0,0,0,0,0,0,0,0,0,0,0,0,0,0,0,0,0.2435,0.2435,0,0.2384,0.2384,0.2383,0.2355,0.2355,0.2355,0.2356,0.2313,0.2312,0.231,0,0,0,0,0,0,0,0,0,0,0,0,0,0.2541,0.2539,0.2435,0.2435,0.2435,0.2385,0.2383,0.2382,0.2355,0.2355,0.2356,0.2356,0.2314,0.2312,0.231,0,0,0,0,0,0,0,0,0,0,0,0,0,0.249,0.2538,0.2435,0.2418,0.2416,0.2385,0.2383,0.2382,0.2355,0.2355,0.2356,0.2356,0.2314,0.2312,0.231,0.2289,0,0,0.2304,0.2303,0,0,0,0,0,0,0,0,0.2492,0.2485,0.2421,0.2419,0.2417,0.238,0.2405,0.2353,0.2355,0.2374,0.2356,0.2356,0.2338,0.2334,0.2318,0.2287,0.2285,0.2303,0.2302,0.2301,0.2301,0,0,0,0,0,0,0,0.2496,0.2487,0.2411,0.242,0.2418,0.2424,0.2416,0.2395,0.2352,0.2372,0.2371,0.2371,0.2337,0.232,0.2317,0.2284,0.2303,0.2302,0.23,0.2299,0.2262,0.2262,0,0,0,0,0,0,0.2507,0.249,0.2413,0.241,0.2461,0.2422,0.2413,0.2388,0.2352,0.2347,0.2371,0.237,0.2324,0.232,0.2316,0.2324,0.2301,0.2299,0.2298,0.2262,0.2262,0.2262,0,0,0,0,0,0,0.2509,0.25,0.2415,0.2454,0.2444,0.242,0.2392,0.2387,0.2378,0.2351,0.2347,0.2369,0.2324,0.2319,0.23,0.2321,0.2298,0.2296,0.2261,0.2262,0.2262,0.2317,0,0,0,0,0,0,0.2512,0.25,0.2485,0.2454,0.2442,0.2402,0.2392,0.2386,0.2379,0.2377,0.2348,0.2343,0.2324,0.2304,0.2298,0.2317,0.2295,0.2261,0.2262,0.2262,0.2315,0.232,0.2323,0,0,0,0,0,0.2515,0.2494,0.2484,0.2475,0.2422,0.2402,0.2396,0.2379,0.2379,0.2372,0.2353,0.2345,0.2303,0.2302,0.2295,0.2315,0.2261,0.2261,0.2262,0.2313,0.2319,0.2323,0,0,0,0,0,0,0.253,0.2488,0.2477,0.2442,0.2428,0.2399,0.2393,0.2384,0.2362,0.2364,0.234,0.2334,0.2328,0.2308,0.2307,0.2304,0.2284,0.2283,0.2325,0.233,0.2334,0.2332,0.2293,0,0,0,0,0,0.2527,0.25,0.2471,0.2446,0.244,0.2419,0.241,0.24,0.238,0.2371,0.2351,0.2333,0.2323,0.2317,0.2297,0.2291,0.2302,0.2301,0.2305,0.2308,0.2302,0.2341,0.2348,0.2264,0.2264,0.2264,0,0,0.2526,0.2502,0.2486,0.2449,0.2435,0.2421,0.2413,0.2403,0.2395,0.237,0.2352,0.2344,0.2323,0.2317,0.2314,0.2306,0.2343,0.2309,0.2313,0.2304,0.2342,0.2351,0.2358,0.2265,0.2265,0.2265,0,0,0.252,0.2491,0.2471,0.2461,0.2446,0.243,0.2432,0.2408,0.2401,0.2385,0.2373,0.2376,0.2345,0.2342,0.2337,0.235,0.2362,0.2349,0.2371,0.2409,0.2417,0.2423,0.2474,0.2485,0.2354,0.2354,0.2354,0,0.2525,0.2487,0.2467,0.2455,0.245,0.2437,0.2428,0.2416,0.239,0.2393,0.2386,0.2373,0.2358,0.2369,0.2372,0.2361,0.2387,0.2358,0.2417,0.2423,0.2429,0.2479,0.249,0.2357,0.2356,0.2356,0.2356,0,0.2507,0.2482,0.2476,0.2449,0.2443,0.2435,0.2423,0.2418,0.2415,0.2409,0.2419,0.2405,0.2404,0.2407,0.2389,0.2427,0.2435,0.242,0.241,0.2442,0.2492,0.2503,0.2361,0.236,0.2359,0.2358,0,0,0.2502,0.2467,0.2465,0.2452,0.2442,0.243,0.2432,0.2426,0.2431,0.2429,0.2449,0.244,0.2451,0.2444,0.2442,0.2468,0.2541,0.2462,0.2463,0.2522,0.2643,0.2551,0.2554,0.2543,0.2545,0.2546,0.2671,0,0.2494,0.2465,0.2455,0.2435,0.242,0.2423,0.2423,0.2426,0.2431,0.2446,0.2467,0.2476,0.2462,0.2475,0.2503,0.2523,0.2567,0.2509,0.2593,0.2596,0.2518,0.2562,0.2416,0.2505,0.2681,0.2683,0.2685,0,0.2481,0.246,0.2438,0.2421,0.2418,0.241,0.2418,0.2415,0.2446,0.2459,0.2494,0.2511,0.2555,0.2537,0.2615,0.2582,0.2617,0.2636,0.2641,0.2537,0.2522,0.2495,0.2517,0.2433,0.2701,0.27,0.2698,0,0.2478,0.245,0.2428,0.2422,0.2404,0.2405,0.2402,0.2422,0.2437,0.2476,0.2515,0.2557,0.2594,0.2642,0.269,0.2661,0.2782,0.275,0.271,0.2705,0.2583,0.2563,0.2534,0.2816,0.2816,0.2816,0.2815,0,0.2469,0.2449,0.2421,0.2406,0.2391,0.2393,0.2395,0.2402,0.2448,0.2472,0.2525,0.2567,0.2621,0.2697,0.2728,0.2757,0.2825,0.2719,0.2727,0.2598,0.2579,0.2499,0.2466,0.282,0.2819,0.2818,0.2818,0,0.2457,0.2442,0.2409,0.2387,0.2383,0.2369,0.2386,0.2396,0.2445,0.249,0.2516,0.26,0.2665,0.2738,0.2815,0.2797,0.2746,0.2841,0.2689,0.2672,0.2478,0.2453,0.2375,0.2302,0.2787,0.2786,0.2784,0,0.2438,0.2421,0.2388,0.2373,0.2358,0.2347,0.2351,0.2385,0.2405,0.2499,0.2528,0.2619,0.2651,0.2749,0.273,0.2776,0.2711,0.266,0.2547,0.2447,0.2428,0.2363,0.2304,0.2437,0.2433,0.243,0.2427,0,0.24,0.2391,0.2366,0.2338,0.2328,0.2306,0.2314,0.2334,0.238,0.2433,0.248,0.2519,0.2591,0.2536,0.2589,0.259,0.2483,0.2586,0.2527,0.2176,0.2061,0.2001,0.2399,0.2397,0.24,0.2403,0.2404,0.2405,0.2366,0.2342,0.2314,0.2277,0.2271,0.2235,0.2197,0.2229,0.2241,0.2273,0.2371,0.2374,0.2377,0.2391,0.2392,0.2237,0.2268,0.2128,0.2125,0.2083,0.1931,0.2255,0.2219,0.2221,0.2222,0.2224,0.2225,0,0.23,0.2277,0.2253,0.2192,0.215,0.2164,0.2146,0.2098,0.207,0.2135,0.2158,0.2112,0.2054,0.2043,0.1912,0.1806,0.1744,0.1739,0.1621,0.16,0.1929,0.1827,0.1647,0.1647,0.1647,0.1647,0.1647,0.1648,0.2259,0.2209,0.2186,0.2071,0.2033,0.1931,0.1892,0.1857,0.1864,0.1812,0.1771,0.1805,0.1798,0.1696,0.1536,0.1486,0.138,0.1286,0.1332,0.1562,0.1598,0.1632,0.1527,0.1288,0.1288,0.0917,0.0914,0.0912]},{"header":{"parameterUnit":"m.s-1","parameterCategory":2,"la1":30.2991,"la2":30.254,"lo1":-89.0895,"lo2":-89.0444,"dy":0.0017,"dx":0.0017,"nx":28,"ny":28,"refTime":"2024-10-20T21:00:00:Z","depth":"0","parameterNumber":3,"parameterNumberName":"V-component_of_CURRENTS"},"data":[0,0,0,0,0,0,0,0,0,0,0,0,0,0,0,0,0,0,0,0,0,0,0,0,0,0,0,0,0,0,0,0,0,0,0,0,0,0,0,0,0,0,0,0,0,0,0,0,0,0,0,0,0,0,0,0,0,0,-0.0572,-0.0573,0,-0.0598,-0.0598,-0.0598,-0.0625,-0.0626,-0.0626,-0.0627,-0.0689,-0.069,-0.0691,0,0,0,0,0,0,0,0,0,0,0,0,0,-0.0567,-0.0567,-0.0572,-0.0573,-0.0573,-0.0598,-0.0598,-0.0598,-0.0625,-0.0626,-0.0626,-0.0627,-0.0688,-0.069,-0.0691,0,0,0,0,0,0,0,0,0,0,0,0,0,-0.0577,-0.0567,-0.0572,-0.0591,-0.0593,-0.0598,-0.0598,-0.0598,-0.0625,-0.0626,-0.0627,-0.0627,-0.0688,-0.069,-0.0691,-0.0686,0,0,-0.0697,-0.0697,0,0,0,0,0,0,0,0,-0.0577,-0.0577,-0.0588,-0.059,-0.0592,-0.0611,-0.062,-0.063,-0.0625,-0.0611,-0.0627,-0.0628,-0.0667,-0.067,-0.067,-0.0688,-0.0691,-0.0697,-0.0698,-0.0698,-0.0699,0,0,0,0,0,0,0,-0.0576,-0.0576,-0.058,-0.0588,-0.0591,-0.0606,-0.0608,-0.0621,-0.0633,-0.0612,-0.0614,-0.062,-0.0668,-0.0668,-0.0672,-0.0692,-0.0697,-0.0698,-0.0699,-0.07,-0.0708,-0.0707,0,0,0,0,0,0,-0.0574,-0.0575,-0.058,-0.0581,-0.0588,-0.0605,-0.0607,-0.0602,-0.0632,-0.0638,-0.0619,-0.0621,-0.0665,-0.067,-0.0674,-0.0657,-0.0698,-0.07,-0.0701,-0.0708,-0.0707,-0.0706,0,0,0,0,0,0,-0.0574,-0.0574,-0.0579,-0.0581,-0.0583,-0.0604,-0.0599,-0.0603,-0.0605,-0.0638,-0.0644,-0.0619,-0.0666,-0.0672,-0.0675,-0.066,-0.0701,-0.0702,-0.0709,-0.0708,-0.0707,-0.063,0,0,0,0,0,0,-0.0573,-0.0573,-0.0565,-0.0581,-0.0583,-0.0572,-0.0598,-0.0603,-0.0608,-0.0611,-0.0639,-0.0645,-0.0667,-0.0673,-0.0677,-0.0663,-0.0704,-0.071,-0.0709,-0.0707,-0.0634,-0.0627,-0.0621,0,0,0,0,0,-0.0573,-0.0557,-0.0564,-0.0565,-0.0572,-0.0571,-0.0573,-0.059,-0.0607,-0.0597,-0.0616,-0.0645,-0.0667,-0.0673,-0.0679,-0.0665,-0.0711,-0.0709,-0.0707,-0.0637,-0.0628,-0.0621,0,0,0,0,0,0,-0.0548,-0.0559,-0.0567,-0.0554,-0.0559,-0.0576,-0.057,-0.0586,-0.0592,-0.0598,-0.0631,-0.0637,-0.0637,-0.066,-0.0666,-0.0663,-0.0695,-0.0694,-0.064,-0.0632,-0.0625,-0.06,-0.0705,0,0,0,0,0,-0.0539,-0.053,-0.0543,-0.0532,-0.0533,-0.0551,-0.0554,-0.0566,-0.0578,-0.0582,-0.06,-0.0621,-0.0632,-0.0639,-0.0653,-0.0648,-0.0644,-0.0645,-0.0638,-0.0632,-0.0615,-0.06,-0.059,-0.07,-0.07,-0.07,0,0,-0.0527,-0.0531,-0.0527,-0.0526,-0.0532,-0.0516,-0.0553,-0.0552,-0.0537,-0.0588,-0.057,-0.0598,-0.0626,-0.0619,-0.0621,-0.0636,-0.0594,-0.063,-0.0624,-0.061,-0.0597,-0.0586,-0.0576,-0.0699,-0.0699,-0.0699,0,0,-0.0494,-0.05,-0.048,-0.0479,-0.0485,-0.0492,-0.049,-0.0502,-0.0505,-0.0498,-0.0529,-0.0538,-0.056,-0.0567,-0.0577,-0.054,-0.056,-0.0558,-0.05,-0.0486,-0.0476,-0.0468,-0.0424,-0.0412,-0.0552,-0.0552,-0.0552,0,-0.0483,-0.0452,-0.0473,-0.0451,-0.0444,-0.0476,-0.0449,-0.0451,-0.0462,-0.0452,-0.0483,-0.0494,-0.0528,-0.0506,-0.0502,-0.0523,-0.0512,-0.0528,-0.0475,-0.0467,-0.0459,-0.0417,-0.0405,-0.0548,-0.0549,-0.0549,-0.055,0,-0.0433,-0.0407,-0.0394,-0.0373,-0.0368,-0.0351,-0.036,-0.0351,-0.0367,-0.037,-0.0358,-0.0396,-0.0403,-0.042,-0.0455,-0.042,-0.0426,-0.0468,-0.0491,-0.0443,-0.0402,-0.0391,-0.0543,-0.0544,-0.0545,-0.0546,0,0,-0.0418,-0.0367,-0.0362,-0.0328,-0.0326,-0.031,-0.0286,-0.0263,-0.0228,-0.0254,-0.0205,-0.025,-0.0278,-0.0291,-0.0334,-0.0328,-0.0274,-0.0376,-0.0377,-0.0323,-0.0215,-0.0225,-0.0214,-0.0312,-0.031,-0.0309,-0.0198,0,-0.0373,-0.0296,-0.0296,-0.0226,-0.0188,-0.0205,-0.0173,-0.016,-0.0156,-0.0114,-0.0152,-0.0132,-0.0226,-0.0226,-0.0237,-0.0269,-0.0246,-0.0299,-0.0278,-0.0276,-0.0284,-0.0202,-0.0201,-0.0104,-0.0187,-0.0185,-0.0184,0,-0.0327,-0.0278,-0.0198,-0.0132,-0.0119,-0.009,-0.0038,-0.0011,0.0023,0.0024,0.0027,0.0001,0.0001,-0.0082,-0.0098,-0.013,-0.0161,-0.0184,-0.0182,-0.0209,-0.0265,-0.0172,-0.0081,-0.0157,-0.0167,-0.0169,-0.017,0,-0.0287,-0.021,-0.0136,-0.0117,-0.0055,-0.0027,0.0,0.0033,0.0084,0.0124,0.0172,0.0143,0.0156,0.0099,0.0019,-0.0033,0.0024,-0.0054,-0.0075,-0.0075,-0.0078,-0.0082,-0.0052,-0.0033,-0.0034,-0.0034,-0.0034,0,-0.023,-0.0171,-0.0107,-0.0064,0.0023,0.0031,0.0122,0.0143,0.0206,0.0298,0.0248,0.0319,0.0198,0.0202,0.0104,0.0063,0.0089,-0.0029,-0.0041,-0.005,-0.0052,-0.0126,-0.0188,-0.003,-0.0031,-0.0032,-0.0032,0,-0.0182,-0.0142,-0.0052,0.0023,0.005,0.0112,0.0206,0.0282,0.0316,0.0441,0.0464,0.0476,0.0467,0.0369,0.0308,0.0195,0.0104,0.0125,0.0136,0.0123,-0.001,-0.0068,-0.0039,-0.0078,0.0122,0.0123,0.0123,0,-0.0138,-0.0084,0.0015,0.0079,0.0119,0.0209,0.0281,0.0332,0.0421,0.0546,0.0627,0.0658,0.0695,0.0609,0.0424,0.0302,0.0182,0.0209,0.0093,0.002,-0.0053,-0.01,-0.0139,0.0137,0.0137,0.0137,0.0138,0,-0.005,-0.0024,0.0054,0.0172,0.026,0.0364,0.0469,0.0551,0.0634,0.0735,0.0866,0.091,0.0834,0.0702,0.0518,0.0407,0.0144,0.0212,0.0134,-0.0026,-0.0071,-0.0126,0.0042,0.0141,0.0141,0.0141,0.0141,0.0141,0.0015,0.0082,0.0175,0.0285,0.0385,0.0503,0.0583,0.0704,0.084,0.0989,0.1034,0.1115,0.0919,0.0662,0.0512,0.0213,0.019,0.0093,0.004,0.0009,-0.0066,0.0124,0.0193,0.0193,0.0193,0.0193,0.0193,0,0.0106,0.0178,0.0289,0.0412,0.0514,0.0549,0.0703,0.078,0.0928,0.1087,0.119,0.1149,0.0926,0.0656,0.0254,0.0063,-0.0024,-0.0036,-0.0107,-0.0135,0.0047,0.0005,0.0039,0.0039,0.0039,0.0039,0.004,0.004,0.0168,0.0276,0.0322,0.0492,0.0574,0.0692,0.0767,0.0886,0.1004,0.1164,0.1224,0.1261,0.1044,0.0417,-0.0002,-0.0098,-0.0241,-0.0253,-0.032,-0.0216,-0.0209,-0.0202,-0.0255,-0.0276,-0.0276,-0.0484,-0.0486,-0.0488]}],[{"header":{"parameterUnit":"m.s-1","parameterCategory":2,"la1":30.2991,"la2":30.254,"lo1":-89.0895,"lo2":-89.0444,"dy":0.0017,"dx":0.0017,"nx":28,"ny":28,"refTime":"2024-10-20T21:00:00:Z","depth":"2","parameterNumber":2,"parameterNumberName":"U-component_of_CURRENTS"},"data":[0,0,0,0,0,0,0,0,0,0,0,0,0,0,0,0,0,0,0,0,0,0,0,0,0,0,0,0,0,0,0,0,0,0,0,0,0,0,0,0,0,0,0,0,0,0,0,0,0,0,0,0,0,0,0,0,0,0,0.177,0.177,0,0.1796,0.1796,0.1796,0.1825,0.1826,0.1827,0.1827,0.1838,0.1837,0.1837,0,0,0,0,0,0,0,0,0,0,0,0,0,0.1759,0.1759,0.177,0.177,0.1771,0.1796,0.1796,0.1796,0.1825,0.1826,0.1827,0.1828,0.1838,0.1837,0.1837,0,0,0,0,0,0,0,0,0,0,0,0,0,0.1769,0.1759,0.177,0.1791,0.1793,0.1796,0.1796,0.1796,0.1825,0.1826,0.1827,0.1828,0.1838,0.1837,0.1837,0.1812,0,0,0.1835,0.1835,0,0,0,0,0,0,0,0,0.1769,0.1769,0.1787,0.1789,0.1792,0.1811,0.1796,0.1802,0.1825,0.181,0.1827,0.1829,0.1828,0.1828,0.1827,0.1813,0.1813,0.1835,0.1835,0.1834,0.1834,0,0,0,0,0,0,0,0.1768,0.1769,0.1777,0.1788,0.1791,0.1804,0.1806,0.1797,0.181,0.1811,0.1814,0.1821,0.1829,0.1828,0.1828,0.1813,0.1835,0.1834,0.1834,0.1834,0.187,0.1872,0,0,0,0,0,0,0.1768,0.1768,0.1777,0.1778,0.1786,0.1803,0.1805,0.1801,0.1811,0.1814,0.182,0.1823,0.1828,0.1828,0.1828,0.1862,0.1834,0.1834,0.1833,0.1869,0.1871,0.1872,0,0,0,0,0,0,0.1768,0.1768,0.1776,0.1777,0.1779,0.1802,0.1798,0.1801,0.1813,0.1818,0.1821,0.183,0.1829,0.1829,0.1845,0.186,0.1834,0.1833,0.1868,0.187,0.1871,0.1889,0,0,0,0,0,0,0.1767,0.1768,0.1767,0.1776,0.1779,0.1789,0.1797,0.1801,0.1816,0.1819,0.1827,0.1828,0.183,0.1847,0.1845,0.1859,0.1833,0.1866,0.1868,0.1871,0.1887,0.1892,0.1896,0,0,0,0,0,0.1766,0.1768,0.1767,0.1768,0.1776,0.1789,0.1792,0.181,0.1816,0.1823,0.1837,0.1829,0.1862,0.1847,0.1845,0.1859,0.1865,0.1868,0.1871,0.1885,0.1891,0.1895,0,0,0,0,0,0,0.1778,0.1771,0.1771,0.1773,0.1784,0.1796,0.1806,0.1812,0.1827,0.1836,0.1836,0.1838,0.1868,0.1859,0.1842,0.1881,0.1865,0.1868,0.1877,0.1882,0.1886,0.1911,0.1832,0,0,0,0,0,0.1774,0.1767,0.1772,0.1778,0.1779,0.179,0.1798,0.1813,0.1826,0.1834,0.1846,0.186,0.1874,0.1875,0.1893,0.1894,0.1903,0.1907,0.1911,0.1915,0.1937,0.1961,0.197,0.1882,0.1882,0.1882,0,0,0.1769,0.1779,0.1766,0.1778,0.1785,0.1794,0.1797,0.1818,0.1835,0.1831,0.1864,0.188,0.1883,0.1906,0.1916,0.1898,0.1943,0.1918,0.1921,0.1942,0.1965,0.1974,0.1981,0.1884,0.1883,0.1883,0,0,0.1774,0.1774,0.1767,0.1781,0.1804,0.181,0.1816,0.1836,0.1853,0.1879,0.1893,0.1922,0.193,0.1947,0.1949,0.1983,0.1975,0.1985,0.201,0.2033,0.204,0.2047,0.2056,0.2063,0.1973,0.1973,0.1973,0,0.1767,0.1773,0.1772,0.179,0.1803,0.1815,0.1825,0.1841,0.1873,0.1896,0.1898,0.1952,0.1954,0.1981,0.2003,0.1993,0.2001,0.1983,0.2038,0.2044,0.2051,0.2059,0.2067,0.1974,0.1974,0.1974,0.1974,0,0.178,0.1783,0.179,0.1804,0.1819,0.1835,0.1855,0.1883,0.1905,0.193,0.1983,0.1995,0.2027,0.203,0.2025,0.2072,0.2062,0.2048,0.202,0.2061,0.2066,0.2074,0.1976,0.1976,0.1975,0.1975,0,0,0.1753,0.1781,0.1788,0.1796,0.183,0.1845,0.1877,0.1911,0.1942,0.1984,0.2024,0.2063,0.2085,0.2092,0.209,0.2111,0.2155,0.2101,0.2102,0.2104,0.2202,0.2133,0.2134,0.2148,0.2149,0.2151,0.2182,0,0.1756,0.1786,0.1804,0.1827,0.1832,0.1864,0.1891,0.1936,0.1973,0.2019,0.2053,0.2098,0.2098,0.2116,0.2139,0.2165,0.218,0.2148,0.217,0.2171,0.2099,0.2143,0.1963,0.1971,0.219,0.2191,0.2192,0,0.1765,0.1783,0.1805,0.1834,0.1841,0.1865,0.1921,0.1948,0.2016,0.2051,0.2105,0.2136,0.2191,0.2174,0.2237,0.2217,0.222,0.223,0.223,0.2171,0.2117,0.1971,0.1977,0.2205,0.2204,0.2203,0.2202,0,0.1761,0.1785,0.1804,0.1818,0.1853,0.188,0.1903,0.1969,0.2007,0.208,0.2124,0.2183,0.222,0.225,0.2281,0.2265,0.2338,0.2306,0.2244,0.2238,0.2095,0.2073,0.2347,0.2347,0.2347,0.2347,0.2347,0,0.1765,0.1773,0.1805,0.1822,0.1846,0.1879,0.1924,0.1963,0.203,0.2071,0.2139,0.2176,0.2247,0.2292,0.2301,0.2304,0.2352,0.227,0.2251,0.2094,0.2073,0.2285,0.2277,0.2348,0.2348,0.2347,0.2347,0,0.1745,0.1773,0.1784,0.1826,0.1844,0.1862,0.1928,0.1956,0.2032,0.2085,0.2116,0.2203,0.2254,0.2307,0.2355,0.2324,0.2335,0.2316,0.2125,0.2083,0.2211,0.2204,0.225,0.2249,0.2247,0.2245,0.2244,0,0.1729,0.1741,0.1782,0.1797,0.1815,0.1852,0.1875,0.1948,0.1975,0.2082,0.2092,0.2186,0.2206,0.2263,0.2243,0.2246,0.2302,0.2069,0.2005,0.2229,0.2206,0.2201,0.2197,0.1817,0.1812,0.1808,0.1805,0,0.1702,0.1726,0.1739,0.1759,0.1786,0.1807,0.1844,0.1865,0.1936,0.198,0.2017,0.2054,0.2112,0.2031,0.2054,0.2028,0.2056,0.199,0.2285,0.1868,0.1822,0.1798,0.1808,0.1772,0.1775,0.1778,0.1779,0.1781,0.167,0.1665,0.1697,0.1703,0.173,0.1737,0.1721,0.1749,0.1765,0.1779,0.1869,0.1853,0.1882,0.1816,0.1763,0.1729,0.1868,0.1775,0.1786,0.1801,0.1745,0.1698,0.1614,0.1616,0.1618,0.162,0.1621,0,0.1619,0.1629,0.1642,0.1641,0.1624,0.1674,0.1675,0.1628,0.1579,0.1616,0.1624,0.1496,0.1453,0.1496,0.1388,0.1384,0.1367,0.1327,0.1286,0.1321,0.1351,0.1271,0.1015,0.1013,0.1011,0.1009,0,0,0.1589,0.1573,0.1573,0.1533,0.1534,0.1481,0.1453,0.1393,0.1384,0.1304,0.1276,0.1382,0.1448,0.121,0.118,0.1078,0.1191,0.1035,0.1523,0.1511,0.1539,0.1615,0.1531,0,0,0,0,0]},{"header":{"parameterUnit":"m.s-1","parameterCategory":2,"la1":30.2991,"la2":30.254,"lo1":-89.0895,"lo2":-89.0444,"dy":0.0017,"dx":0.0017,"nx":28,"ny":28,"refTime":"2024-10-20T21:00:00:Z","depth":"2","parameterNumber":3,"parameterNumberName":"V-component_of_CURRENTS"},"data":[0,0,0,0,0,0,0,0,0,0,0,0,0,0,0,0,0,0,0,0,0,0,0,0,0,0,0,0,0,0,0,0,0,0,0,0,0,0,0,0,0,0,0,0,0,0,0,0,0,0,0,0,0,0,0,0,0,0,0.0333,0.0333,0,0.027,0.0268,0.0267,0.0216,0.0216,0.0215,0.0215,0.0181,0.018,0.018,0,0,0,0,0,0,0,0,0,0,0,0,0,0.0328,0.0329,0.0333,0.0333,0.0333,0.027,0.0268,0.0267,0.0216,0.0216,0.0215,0.0215,0.0181,0.018,0.0179,0,0,0,0,0,0,0,0,0,0,0,0,0,0.03,0.0329,0.0334,0.0302,0.0299,0.027,0.0268,0.0267,0.0216,0.0216,0.0215,0.0215,0.0182,0.018,0.0179,0.0177,0,0,0.0176,0.0175,0,0,0,0,0,0,0,0,0.0302,0.03,0.0307,0.0304,0.0301,0.0254,0.0254,0.024,0.0216,0.0243,0.0215,0.0215,0.0211,0.0207,0.019,0.0176,0.0174,0.0176,0.0175,0.0175,0.0174,0,0,0,0,0,0,0,0.0304,0.0302,0.0304,0.0307,0.0303,0.0263,0.0259,0.025,0.0227,0.0241,0.0238,0.0237,0.0209,0.0191,0.0189,0.0174,0.0176,0.0175,0.0174,0.0174,0.0136,0.0136,0,0,0,0,0,0,0.0325,0.0305,0.0306,0.0303,0.0305,0.0264,0.026,0.0266,0.0226,0.0221,0.0238,0.0235,0.0193,0.019,0.0187,0.0187,0.0175,0.0173,0.0173,0.0137,0.0136,0.0136,0,0,0,0,0,0,0.0325,0.0326,0.0309,0.0305,0.03,0.0266,0.0272,0.0265,0.0246,0.0224,0.0218,0.0227,0.0193,0.0189,0.0178,0.0185,0.0173,0.0172,0.0137,0.0137,0.0136,0.0183,0,0,0,0,0,0,0.0325,0.0327,0.0329,0.0307,0.0301,0.0296,0.0273,0.0264,0.0248,0.0244,0.0213,0.0209,0.0192,0.0179,0.0176,0.0183,0.0171,0.0137,0.0137,0.0136,0.0182,0.0184,0.0186,0,0,0,0,0,0.0326,0.0331,0.033,0.033,0.031,0.0297,0.029,0.0261,0.0248,0.0242,0.0219,0.021,0.0173,0.0179,0.0175,0.0182,0.0138,0.0137,0.0136,0.0181,0.0184,0.0186,0,0,0,0,0,0,0.0319,0.0327,0.0324,0.0329,0.0318,0.029,0.0282,0.0264,0.0239,0.0236,0.0211,0.0206,0.0196,0.018,0.0186,0.0166,0.0152,0.0151,0.0187,0.019,0.0192,0.0195,0.017,0,0,0,0,0,0.0326,0.0337,0.0331,0.0333,0.0335,0.0309,0.0298,0.0282,0.0262,0.0249,0.0223,0.02,0.019,0.0184,0.0165,0.016,0.0142,0.0159,0.0161,0.0163,0.0162,0.0143,0.0144,0.0134,0.0134,0.0134,0,0,0.0326,0.0328,0.0335,0.0334,0.0324,0.0324,0.0301,0.0291,0.0284,0.0253,0.0228,0.0208,0.0189,0.0179,0.0173,0.0168,0.0156,0.0162,0.0165,0.0162,0.0142,0.0144,0.0145,0.0133,0.0133,0.0133,0,0,0.0331,0.0336,0.035,0.0347,0.0342,0.033,0.0332,0.0306,0.0289,0.027,0.0247,0.023,0.0202,0.0189,0.0183,0.0186,0.0167,0.018,0.0198,0.0181,0.0182,0.0183,0.0163,0.0161,0.0183,0.0183,0.0183,0,0.0331,0.0348,0.0348,0.0355,0.0357,0.0339,0.0348,0.0329,0.0295,0.0289,0.0268,0.0227,0.0207,0.021,0.0203,0.0193,0.0178,0.0196,0.0186,0.0186,0.0186,0.0165,0.0163,0.0185,0.0185,0.0185,0.0185,0,0.0346,0.0359,0.0366,0.0379,0.0376,0.0381,0.037,0.0356,0.0334,0.0314,0.0299,0.0264,0.0244,0.0233,0.0218,0.0213,0.0201,0.0192,0.0185,0.019,0.0167,0.0164,0.0189,0.0188,0.0187,0.0187,0,0,0.0354,0.0377,0.0378,0.0393,0.0393,0.0395,0.0392,0.039,0.0393,0.035,0.0349,0.0314,0.0294,0.0284,0.0264,0.0241,0.0223,0.0217,0.0215,0.0206,0.0182,0.017,0.0166,0.0216,0.0216,0.0216,0.0168,0,0.0369,0.0396,0.0399,0.0421,0.0441,0.0431,0.0433,0.0424,0.0408,0.0397,0.0368,0.0356,0.0318,0.0312,0.0285,0.0241,0.0216,0.0236,0.0169,0.0167,0.0164,0.0162,0.0181,0.014,0.0165,0.0164,0.0164,0,0.0384,0.0404,0.0433,0.0462,0.0469,0.0474,0.0487,0.0487,0.0475,0.0462,0.0445,0.0417,0.0387,0.0349,0.0278,0.0294,0.0238,0.0196,0.0194,0.0163,0.0149,0.0137,0.0134,0.0158,0.0159,0.0159,0.016,0,0.0397,0.0428,0.0456,0.0463,0.0488,0.0497,0.0508,0.0505,0.0521,0.0506,0.0513,0.0468,0.0454,0.0379,0.0289,0.0283,0.0204,0.0189,0.0125,0.0124,0.0116,0.0115,0.0131,0.0131,0.0131,0.0132,0.0132,0,0.0417,0.0439,0.0466,0.0481,0.0518,0.0524,0.0558,0.0557,0.0572,0.0598,0.0553,0.056,0.0459,0.0403,0.0309,0.0211,0.0221,0.0125,0.0111,0.0132,0.0133,0.0128,0.0128,0.013,0.013,0.013,0.0131,0,0.043,0.0445,0.0481,0.0513,0.0527,0.0552,0.0601,0.0627,0.0634,0.0667,0.0667,0.0632,0.056,0.0454,0.0333,0.0249,0.0147,0.0108,0.0138,0.0127,0.0072,0.0075,0.0032,0.0032,0.0031,0.003,0.003,0,0.0441,0.046,0.0505,0.053,0.0547,0.059,0.0625,0.0652,0.0687,0.0711,0.0731,0.0681,0.065,0.0478,0.0322,0.0167,0.0144,0.0074,0.0062,0.0072,0.0062,0.0066,0.007,0.0068,0.0068,0.0068,0.0068,0,0.0462,0.0473,0.0503,0.0555,0.0594,0.0649,0.0701,0.074,0.0775,0.0804,0.0826,0.0804,0.0658,0.0512,0.0307,0.0199,0.01,0.0067,0.0073,0.0092,0.0102,0.0094,0.0097,0.0067,0.0067,0.0067,0.0067,0.0067,0.0471,0.0494,0.0529,0.0579,0.0628,0.0694,0.074,0.0798,0.0858,0.0898,0.0885,0.0856,0.0704,0.0445,0.0274,0.0093,0.0098,0.0026,0.0028,0.0029,0.0044,0.0052,0.001,0.001,0.001,0.001,0.001,0,0.048,0.0508,0.0553,0.0609,0.066,0.0692,0.0781,0.0828,0.0895,0.0929,0.0942,0.0792,0.0644,0.0468,0.0209,0.0049,0.0038,-0.0008,0.0021,0.0023,0.0025,0.004,0.0004,0.0004,0.0003,0.0003,0,0,0.0483,0.0517,0.0542,0.0617,0.0663,0.0738,0.0788,0.0862,0.091,0.0931,0.0916,0.0896,0.0695,0.0504,0.0299,0.0154,0.0119,0.0118,0.014,0.02,0.0204,0.0062,0.0091,0,0,0,0,0]}],[{"header":{"parameterUnit":"m.s-1","parameterCategory":2,"la1":30.2991,"la2":30.254,"lo1":-89.0895,"lo2":-89.0444,"dy":0.0017,"dx":0.0017,"nx":28,"ny":28,"refTime":"2024-10-20T21:00:00:Z","depth":"4","parameterNumber":2,"parameterNumberName":"U-component_of_CURRENTS"},"data":[0,0,0,0,0,0,0,0,0,0,0,0,0,0,0,0,0,0,0,0,0,0,0,0,0,0,0,0,0,0,0,0,0,0,0,0,0,0,0,0,0,0,0,0,0,0,0,0,0,0,0,0,0,0,0,0,0,0,0.0885,0.0885,0,0.0937,0.0938,0.0938,0.0981,0.0981,0.0982,0.0982,0.1022,0.1023,0.1023,0,0,0,0,0,0,0,0,0,0,0,0,0,0.0825,0.0826,0.0885,0.0885,0.0886,0.0937,0.0938,0.0938,0.0981,0.0981,0.0982,0.0983,0.1022,0.1023,0.1024,0,0,0,0,0,0,0,0,0,0,0,0,0,0.0861,0.0826,0.0885,0.0914,0.0917,0.0937,0.0938,0.0938,0.0981,0.0981,0.0982,0.0983,0.1022,0.1023,0.1024,0.1013,0,0,0.1026,0.1027,0,0,0,0,0,0,0,0,0.0859,0.0863,0.0909,0.0912,0.0916,0.0954,0.0932,0.0963,0.098,0.0956,0.0982,0.0983,0.0998,0.1001,0.1008,0.1015,0.1017,0.1026,0.1027,0.1027,0.1027,0,0,0,0,0,0,0,0.0856,0.0861,0.0905,0.091,0.0914,0.0926,0.0932,0.0938,0.0971,0.0958,0.0961,0.0968,0.1,0.1007,0.1009,0.1017,0.1026,0.1027,0.1028,0.1028,0.1114,0.1116,0,0,0,0,0,0,0.0851,0.0859,0.0903,0.0906,0.089,0.0927,0.0933,0.094,0.0971,0.0977,0.0968,0.097,0.1005,0.1008,0.1011,0.1068,0.1027,0.1028,0.1029,0.1113,0.1115,0.1117,0,0,0,0,0,0,0.0849,0.0854,0.0901,0.0884,0.0891,0.0927,0.0935,0.0941,0.0971,0.0979,0.0985,0.0994,0.1006,0.101,0.1043,0.1068,0.1028,0.1029,0.111,0.1113,0.1116,0.1139,0,0,0,0,0,0,0.0847,0.0853,0.0865,0.0884,0.0892,0.0926,0.0934,0.0941,0.0973,0.0977,0.1003,0.1006,0.1007,0.1042,0.1044,0.1068,0.103,0.1108,0.1112,0.1115,0.1136,0.1143,0.1148,0,0,0,0,0,0.0845,0.0855,0.0866,0.0872,0.0905,0.0927,0.0933,0.096,0.0974,0.0989,0.1014,0.1007,0.1065,0.1044,0.1046,0.1071,0.1107,0.1111,0.1115,0.1134,0.1141,0.1148,0,0,0,0,0,0,0.0835,0.0861,0.0873,0.0891,0.0915,0.0935,0.0955,0.0971,0.1002,0.1013,0.1021,0.1026,0.1067,0.1069,0.1046,0.1109,0.1088,0.1092,0.1102,0.1109,0.1115,0.1121,0.1031,0,0,0,0,0,0.0838,0.0857,0.0879,0.0898,0.091,0.0936,0.0953,0.097,0.0995,0.1011,0.1034,0.106,0.1081,0.1095,0.1115,0.1141,0.1147,0.1164,0.1169,0.1174,0.1183,0.1215,0.1223,0.113,0.113,0.113,0,0,0.084,0.0858,0.087,0.0898,0.092,0.0943,0.0949,0.0979,0.1007,0.1008,0.1063,0.108,0.1094,0.1131,0.115,0.1137,0.1205,0.1179,0.1182,0.1189,0.122,0.1228,0.1236,0.1132,0.1132,0.1131,0,0,0.085,0.0871,0.0889,0.0909,0.0943,0.096,0.0974,0.1009,0.1036,0.108,0.1093,0.1128,0.1164,0.1181,0.119,0.124,0.1234,0.1251,0.1281,0.1311,0.1319,0.1325,0.1341,0.1349,0.1252,0.1252,0.1253,0,0.0853,0.0877,0.0898,0.092,0.0941,0.0971,0.0995,0.1023,0.1071,0.1096,0.1106,0.1178,0.1189,0.1227,0.125,0.1251,0.1264,0.1247,0.1317,0.1324,0.133,0.1345,0.1353,0.1254,0.1254,0.1254,0.1254,0,0.087,0.0896,0.091,0.095,0.0975,0.1001,0.1038,0.1078,0.1116,0.1145,0.1206,0.1229,0.1272,0.1282,0.1281,0.1334,0.1327,0.1318,0.1293,0.134,0.1353,0.1361,0.1256,0.1256,0.1255,0.1255,0,0,0.0857,0.0911,0.0919,0.0943,0.0993,0.1014,0.1066,0.1117,0.1158,0.1211,0.1264,0.1308,0.1329,0.1343,0.1349,0.1377,0.1429,0.1372,0.1373,0.1376,0.1493,0.1379,0.1377,0.1432,0.1434,0.1435,0.1481,0,0.0866,0.0908,0.0936,0.0984,0.1008,0.1053,0.1098,0.115,0.1201,0.1262,0.1297,0.1352,0.1348,0.1376,0.1404,0.1428,0.1454,0.1417,0.1457,0.1458,0.1341,0.1383,0.1441,0.1487,0.1489,0.149,0.1491,0,0.0869,0.09,0.0945,0.1005,0.1021,0.1059,0.1137,0.1182,0.1262,0.1304,0.1362,0.1395,0.1453,0.1441,0.1506,0.1485,0.1498,0.1508,0.151,0.1401,0.1359,0.1433,0.1506,0.1505,0.1504,0.1503,0.1502,0,0.0845,0.0904,0.0943,0.0964,0.1036,0.1075,0.1121,0.1201,0.1248,0.134,0.1386,0.145,0.1496,0.1529,0.1555,0.1543,0.1613,0.1594,0.1501,0.1493,0.157,0.1562,0.164,0.164,0.164,0.164,0.164,0,0.0834,0.0867,0.094,0.0961,0.1016,0.1071,0.1139,0.1197,0.1282,0.1335,0.1409,0.1452,0.1525,0.1568,0.1578,0.1561,0.1634,0.1515,0.1501,0.1579,0.1572,0.1575,0.1567,0.1642,0.1641,0.1641,0.1641,0,0.0799,0.0847,0.0896,0.0977,0.1007,0.1049,0.1146,0.1189,0.1279,0.1351,0.1386,0.148,0.1531,0.1577,0.1631,0.158,0.1581,0.1555,0.1638,0.1627,0.1436,0.1429,0.1458,0.1454,0.1451,0.1449,0.1447,0,0.0783,0.0806,0.0897,0.093,0.0973,0.1042,0.1085,0.118,0.1223,0.1349,0.1371,0.1462,0.1508,0.1492,0.1545,0.1552,0.1531,0.1516,0.1473,0.1436,0.142,0.1418,0.1415,0.1442,0.1441,0.144,0.1439,0,0.0751,0.0793,0.0832,0.0898,0.0951,0.0999,0.1068,0.109,0.1193,0.1288,0.1325,0.1351,0.1399,0.1426,0.1441,0.1442,0.1517,0.1484,0.149,0.145,0.1417,0.1403,0.1404,0.1429,0.1431,0.1431,0.1432,0,0.0729,0.0747,0.0803,0.0854,0.0915,0.0937,0.0978,0.1022,0.1073,0.1205,0.1212,0.13,0.1385,0.1369,0.1383,0.1374,0.1351,0.1295,0.1311,0.1323,0.1255,0.1191,0.1129,0,0,0,0,0,0.0703,0.0716,0.0755,0.0801,0.0854,0.0887,0.0959,0.0999,0.1093,0.1088,0.1147,0.1184,0.1206,0.1251,0.1215,0.132,0.1354,0.127,0.1298,0.1371,0.1383,0.1314,0,0,0,0,0,0,0.0685,0.0721,0.0731,0.0741,0.076,0.0803,0.0843,0.0903,0.0904,0.1007,0.1028,0.1105,0.1149,0.1219,0.1193,0.1205,0.1194,0.1327,0.1323,0.1364,0.1375,0.1385,0.1318,0,0,0,0,0]},{"header":{"parameterUnit":"m.s-1","parameterCategory":2,"la1":30.2991,"la2":30.254,"lo1":-89.0895,"lo2":-89.0444,"dy":0.0017,"dx":0.0017,"nx":28,"ny":28,"refTime":"2024-10-20T21:00:00:Z","depth":"4","parameterNumber":3,"parameterNumberName":"V-component_of_CURRENTS"},"data":[0,0,0,0,0,0,0,0,0,0,0,0,0,0,0,0,0,0,0,0,0,0,0,0,0,0,0,0,0,0,0,0,0,0,0,0,0,0,0,0,0,0,0,0,0,0,0,0,0,0,0,0,0,0,0,0,0,0,0.035,0.0349,0,0.0331,0.0331,0.0331,0.032,0.032,0.032,0.032,0.0304,0.0303,0.0303,0,0,0,0,0,0,0,0,0,0,0,0,0,0.0338,0.0339,0.035,0.0349,0.0349,0.0331,0.0331,0.0331,0.032,0.032,0.032,0.032,0.0304,0.0303,0.0303,0,0,0,0,0,0,0,0,0,0,0,0,0,0.0333,0.0339,0.035,0.0343,0.0342,0.0332,0.0331,0.0331,0.032,0.032,0.032,0.0321,0.0304,0.0304,0.0303,0.0295,0,0,0.03,0.03,0,0,0,0,0,0,0,0,0.0333,0.0333,0.0344,0.0343,0.0343,0.0329,0.0321,0.0319,0.032,0.0327,0.032,0.0321,0.0313,0.0312,0.0306,0.0294,0.0294,0.03,0.03,0.0299,0.0299,0,0,0,0,0,0,0,0.0333,0.0333,0.0341,0.0344,0.0343,0.0328,0.0328,0.032,0.0319,0.0326,0.0326,0.0326,0.0313,0.0307,0.0306,0.0293,0.03,0.03,0.0299,0.0299,0.0281,0.0281,0,0,0,0,0,0,0.0341,0.0334,0.0341,0.034,0.034,0.0329,0.0328,0.0332,0.0319,0.0317,0.0326,0.0326,0.0308,0.0307,0.0305,0.0307,0.0299,0.0299,0.0298,0.0281,0.0281,0.0281,0,0,0,0,0,0,0.034,0.0342,0.0342,0.0338,0.0337,0.0329,0.0334,0.0332,0.0331,0.0319,0.0317,0.0328,0.0308,0.0306,0.0303,0.0306,0.0298,0.0298,0.0281,0.0281,0.0281,0.0303,0,0,0,0,0,0,0.034,0.0342,0.0346,0.0338,0.0338,0.034,0.0334,0.0332,0.0332,0.0331,0.032,0.0318,0.0308,0.0305,0.0303,0.0305,0.0297,0.0281,0.0281,0.0281,0.0302,0.0304,0.0305,0,0,0,0,0,0.034,0.0345,0.0346,0.0347,0.0344,0.0341,0.0339,0.0332,0.0332,0.0332,0.0325,0.0319,0.0303,0.0304,0.0302,0.0304,0.0281,0.0281,0.0281,0.0302,0.0304,0.0305,0,0,0,0,0,0,0.0339,0.0344,0.0346,0.0351,0.0349,0.034,0.034,0.0337,0.0331,0.0333,0.032,0.0318,0.0316,0.0306,0.0308,0.0298,0.029,0.029,0.0307,0.0308,0.031,0.0313,0.0296,0,0,0,0,0,0.0342,0.0351,0.0349,0.0355,0.0355,0.0349,0.0347,0.0345,0.034,0.0338,0.0328,0.0319,0.0312,0.0309,0.03,0.0296,0.0275,0.0294,0.0296,0.0297,0.0298,0.0268,0.0267,0.0281,0.0281,0.0281,0,0,0.0342,0.0348,0.0351,0.0356,0.0353,0.0356,0.0348,0.035,0.0351,0.0337,0.0334,0.0325,0.0312,0.0307,0.0305,0.0301,0.0281,0.0297,0.0298,0.0298,0.0268,0.0267,0.0265,0.0281,0.0281,0.0281,0,0,0.0347,0.0353,0.0362,0.0363,0.0367,0.0363,0.0367,0.0361,0.0358,0.0355,0.0345,0.0338,0.0326,0.0316,0.031,0.0313,0.029,0.0311,0.0321,0.0292,0.0291,0.0289,0.0256,0.0252,0.0311,0.0311,0.0311,0,0.0347,0.036,0.0362,0.0369,0.0373,0.037,0.0377,0.0371,0.0364,0.0363,0.0358,0.0339,0.0328,0.0322,0.0323,0.0316,0.0295,0.0317,0.0294,0.0292,0.029,0.0257,0.0251,0.0313,0.0312,0.0312,0.0312,0,0.0357,0.0368,0.0372,0.0384,0.0387,0.0393,0.0391,0.039,0.0387,0.038,0.0373,0.0356,0.0344,0.0339,0.0332,0.0318,0.0304,0.03,0.0291,0.029,0.0255,0.0249,0.0314,0.0314,0.0313,0.0313,0,0,0.0354,0.0376,0.0379,0.0389,0.0398,0.0402,0.0405,0.0406,0.0409,0.0395,0.0392,0.0377,0.0367,0.036,0.0348,0.0324,0.0291,0.0309,0.0307,0.0277,0.0222,0.0213,0.0205,0.0282,0.0281,0.0281,0.0201,0,0.0362,0.0384,0.0392,0.041,0.042,0.0422,0.0426,0.0427,0.0421,0.0413,0.0395,0.0387,0.0375,0.0372,0.0346,0.0308,0.0277,0.0312,0.0225,0.0223,0.0216,0.0199,0.0278,0.0196,0.0195,0.0194,0.0193,0,0.0369,0.0385,0.0406,0.0429,0.0434,0.0444,0.0454,0.0458,0.0448,0.0442,0.0429,0.0412,0.0384,0.0371,0.0298,0.0321,0.0273,0.0238,0.0234,0.0214,0.0203,0.0197,0.0182,0.0182,0.0183,0.0184,0.0185,0,0.0369,0.0395,0.0416,0.0423,0.0444,0.0456,0.0467,0.0468,0.0475,0.0461,0.0459,0.0422,0.0404,0.0343,0.0275,0.0283,0.0185,0.0186,0.0128,0.0127,0.0149,0.0152,0.0123,0.0124,0.0124,0.0124,0.0124,0,0.0373,0.0389,0.042,0.043,0.0455,0.0468,0.0489,0.0491,0.0497,0.0503,0.0477,0.0466,0.0396,0.0336,0.0271,0.018,0.0178,0.0123,0.0104,0.016,0.0164,0.0144,0.0148,0.0121,0.0122,0.0122,0.0123,0,0.0364,0.0386,0.041,0.0442,0.0456,0.0472,0.051,0.0521,0.0527,0.0531,0.0529,0.049,0.0419,0.0338,0.0232,0.0176,0.0089,0.0055,0.0113,0.01,0.0049,0.0054,-0.0018,-0.0019,-0.002,-0.002,-0.0021,0,0.036,0.0373,0.0417,0.0436,0.0453,0.0485,0.0507,0.0531,0.0545,0.0544,0.0543,0.0487,0.0449,0.0293,0.0209,0.0075,0.0059,0.0004,0.0033,0.0044,0.0034,0.0041,0.0047,-0.0022,-0.0023,-0.0023,-0.0023,0,0.0346,0.0366,0.0386,0.0427,0.0458,0.0494,0.053,0.0543,0.0567,0.0573,0.0549,0.0479,0.0396,0.0291,0.0184,0.009,0.0036,-0.0005,-0.0004,0.0023,0.0038,0.003,0.0037,-0.0026,-0.0025,-0.0025,-0.0025,0,0.0333,0.0343,0.0376,0.0412,0.0453,0.0492,0.0515,0.0537,0.0555,0.0562,0.055,0.0474,0.0434,0.0297,0.0199,0.0107,0.0088,0.0053,0.0051,0.0053,0.0103,0.0135,0.0078,0,0,0,0,0,0.0316,0.033,0.0359,0.04,0.0444,0.0474,0.0523,0.0546,0.0572,0.0556,0.0558,0.0484,0.0352,0.0299,0.0204,0.0178,0.0065,0.0062,0.0022,-0.0042,-0.0039,0.0008,0,0,0,0,0,0,0.0303,0.0327,0.0347,0.0386,0.0417,0.0466,0.0502,0.0524,0.0521,0.0535,0.0471,0.0448,0.0324,0.0405,0.0198,0.0172,0.0129,0.0008,0.0005,-0.0044,-0.0041,-0.0038,0.0011,0,0,0,0,0]}]]